When you browse on this site, cookies collect data to enhance your experience and personalize the content and advertising you see.
Visit our Privacy Policy to learn more. By continuing to use the site, you agree to this use of cookies and data.
  • En España
  • Lista de países
  • Para 7 días
  • Temperatura del agua
  • Mapa Satelital
  • El tiempo en el mapa
  • Informadores
  • user-avatar
    Iniciar sesión

    Tiempo cada hora Bylniki

    Hoy, 23 Mayo, Jueves

    Tiempo Temperatura Precipitaciones Viento Presión Humedad
    00:00 +14°C° 0 mm 0 mps 735 mmHg 87%
    01:00 +14°C° 0 mm 1 mps 734 mmHg 88%
    02:00 +14°C° 0 mm 1 mps 734 mmHg 88%
    03:00 +14°C° 0 mm 1 mps 734 mmHg 88%
    04:00 +14°C° 0 mm 1 mps 734 mmHg 89%
    05:00 +14°C° 0 mm 1 mps 734 mmHg 89%
    06:00 +16°C° 0 mm 1 mps 734 mmHg 83%
    07:00 +18°C° 0 mm 2 mps 734 mmHg 78%
    08:00 +20°C° 0 mm 2 mps 735 mmHg 72%
    09:00 +21°C° 0.1 mm 2 mps 735 mmHg 67%
    10:00 +22°C° 0.1 mm 3 mps 734 mmHg 62%
    11:00 +24°C° 0.1 mm 3 mps 734 mmHg 57%
    12:00 +25°C° 0 mm 4 mps 734 mmHg 55%
    13:00 +25°C° 0 mm 4 mps 734 mmHg 53%
    14:00 +25°C° 0 mm 4 mps 734 mmHg 52%
    15:00 +25°C° 0.3 mm 4 mps 734 mmHg 57%
    16:00 +24°C° 0.3 mm 3 mps 734 mmHg 61%
    17:00 +24°C° 0.3 mm 3 mps 733 mmHg 66%
    18:00 +21°C° 0.1 mm 3 mps 734 mmHg 72%
    19:00 +19°C° 0.1 mm 2 mps 734 mmHg 78%
    20:00 +18°C° 0.1 mm 2 mps 734 mmHg 84%
    21:00 +17°C° 0 mm 2 mps 734 mmHg 86%
    22:00 +16°C° 0 mm 1 mps 734 mmHg 88%
    23:00 +16°C° 0 mm 1 mps 734 mmHg 90%

    Mañana, 24 Mayo, Viernes

    Tiempo Temperatura Precipitaciones Viento Presión Humedad
    00:00 +15°C° 0.1 mm 1 mps 734 mmHg 91%
    01:00 +15°C° 0.1 mm 1 mps 734 mmHg 92%
    02:00 +15°C° 0.1 mm 1 mps 734 mmHg 93%
    03:00 +15°C° 0.2 mm 1 mps 735 mmHg 94%
    04:00 +15°C° 0.2 mm 1 mps 735 mmHg 95%
    05:00 +15°C° 0.2 mm 1 mps 735 mmHg 96%
    06:00 +16°C° 0 mm 2 mps 735 mmHg 94%
    07:00 +17°C° 0 mm 2 mps 735 mmHg 91%
    08:00 +17°C° 0 mm 3 mps 735 mmHg 89%
    09:00 +18°C° 0.3 mm 3 mps 735 mmHg 87%
    10:00 +18°C° 0.3 mm 3 mps 736 mmHg 85%
    11:00 +19°C° 0.3 mm 4 mps 736 mmHg 83%
    12:00 +19°C° 0.5 mm 4 mps 736 mmHg 82%
    13:00 +19°C° 0.5 mm 4 mps 736 mmHg 82%
    14:00 +19°C° 0.5 mm 4 mps 736 mmHg 81%
    15:00 +19°C° 0.4 mm 4 mps 735 mmHg 83%
    16:00 +19°C° 0.4 mm 4 mps 735 mmHg 85%
    17:00 +18°C° 0.4 mm 3 mps 735 mmHg 87%
    18:00 +18°C° 0.1 mm 3 mps 735 mmHg 89%
    19:00 +17°C° 0.1 mm 3 mps 735 mmHg 91%
    20:00 +16°C° 0.1 mm 3 mps 735 mmHg 93%
    21:00 +16°C° 0 mm 3 mps 735 mmHg 94%
    22:00 +14°C° 0 mm 3 mps 735 mmHg 95%
    23:00 +14°C° 0 mm 3 mps 734 mmHg 97%

    Pasado mañana, 25 Mayo, Sábado

    Tiempo Temperatura Precipitaciones Viento Presión Humedad
    00:00 +13°C° 0.5 mm 3 mps 734 mmHg 97%
    01:00 +13°C° 0.5 mm 3 mps 734 mmHg 97%
    02:00 +13°C° 0.5 mm 3 mps 734 mmHg 98%
    03:00 +13°C° 0.5 mm 3 mps 734 mmHg 97%
    04:00 +14°C° 0.5 mm 2 mps 734 mmHg 97%
    05:00 +14°C° 0.5 mm 2 mps 733 mmHg 97%
    06:00 +16°C° 0.2 mm 2 mps 733 mmHg 92%
    07:00 +17°C° 0.2 mm 2 mps 733 mmHg 87%
    08:00 +19°C° 0.2 mm 2 mps 734 mmHg 82%
    09:00 +20°C° 1.4 mm 2 mps 733 mmHg 78%
    10:00 +21°C° 1.4 mm 3 mps 733 mmHg 74%
    11:00 +22°C° 1.4 mm 3 mps 733 mmHg 71%
    12:00 +23°C° 1 mm 2 mps 733 mmHg 71%
    13:00 +21°C° 1 mm 2 mps 732 mmHg 72%
    14:00 +22°C° 1 mm 1 mps 732 mmHg 73%
    15:00 +22°C° 0.7 mm 1 mps 732 mmHg 75%
    16:00 +21°C° 0.7 mm 1 mps 731 mmHg 78%
    17:00 +21°C° 0.7 mm 1 mps 731 mmHg 80%
    18:00 +19°C° 0.5 mm 1 mps 731 mmHg 83%
    19:00 +18°C° 0.5 mm 1 mps 731 mmHg 87%
    20:00 +16°C° 0.5 mm 1 mps 731 mmHg 90%
    21:00 +15°C° 0 mm 1 mps 731 mmHg 91%
    22:00 +15°C° 0 mm 2 mps 731 mmHg 93%
    23:00 +14°C° 0 mm 2 mps 731 mmHg 94%

    26 Mayo, Domingo

    Tiempo Temperatura Precipitaciones Viento Presión Humedad
    00:00 +13°C° 0 mm 2 mps 731 mmHg 95%
    01:00 +11°C° 0 mm 3 mps 731 mmHg 95%
    02:00 +10°C° 0 mm 3 mps 731 mmHg 95%
    03:00 +10°C° 0 mm 3 mps 731 mmHg 95%
    04:00 +10°C° 0 mm 3 mps 731 mmHg 95%
    05:00 +10°C° 0 mm 3 mps 731 mmHg 95%
    06:00 +10°C° 0 mm 3 mps 731 mmHg 90%
    07:00 +11°C° 0 mm 3 mps 731 mmHg 84%
    08:00 +12°C° 0 mm 3 mps 731 mmHg 79%
    09:00 +13°C° 0 mm 4 mps 732 mmHg 74%
    10:00 +14°C° 0 mm 4 mps 732 mmHg 69%
    11:00 +16°C° 0 mm 5 mps 732 mmHg 64%
    12:00 +16°C° 0 mm 5 mps 731 mmHg 62%
    13:00 +17°C° 0 mm 5 mps 731 mmHg 60%
    14:00 +17°C° 0 mm 5 mps 731 mmHg 58%
    15:00 +18°C° 0.1 mm 4 mps 731 mmHg 61%
    16:00 +18°C° 0.1 mm 4 mps 731 mmHg 65%
    17:00 +18°C° 0.1 mm 4 mps 730 mmHg 68%
    18:00 +15°C° 0.4 mm 4 mps 730 mmHg 75%
    19:00 +14°C° 0.4 mm 3 mps 730 mmHg 82%
    20:00 +12°C° 0.4 mm 3 mps 730 mmHg 89%
    21:00 +11°C° 0.6 mm 4 mps 730 mmHg 91%
    22:00 +10°C° 0.6 mm 4 mps 729 mmHg 92%
    23:00 +8°C° 0.6 mm 5 mps 729 mmHg 93%

    27 Mayo, Lunes

    Tiempo Temperatura Precipitaciones Viento Presión Humedad
    00:00 +8°C° 0 mm 5 mps 730 mmHg 93%
    01:00 +7°C° 0 mm 5 mps 730 mmHg 93%
    02:00 +7°C° 0 mm 4 mps 730 mmHg 93%
    03:00 +6°C° 0 mm 5 mps 730 mmHg 93%
    04:00 +6°C° 0 mm 5 mps 731 mmHg 93%
    05:00 +6°C° 0 mm 5 mps 731 mmHg 93%
    06:00 +6°C° 0 mm 5 mps 732 mmHg 91%
    07:00 +6°C° 0 mm 5 mps 732 mmHg 89%
    08:00 +5°C° 0 mm 6 mps 732 mmHg 87%
    09:00 +8°C° 0 mm 6 mps 733 mmHg 80%
    10:00 +9°C° 0 mm 6 mps 734 mmHg 73%
    11:00 +11°C° 0 mm 7 mps 734 mmHg 66%
    12:00 +11°C° 0 mm 7 mps 735 mmHg 67%
    13:00 +11°C° 0 mm 6 mps 735 mmHg 68%
    14:00 +13°C° 0 mm 6 mps 736 mmHg 68%
    15:00 +13°C° 0 mm 6 mps 736 mmHg 68%
    16:00 +13°C° 0 mm 5 mps 736 mmHg 69%
    17:00 +14°C° 0 mm 5 mps 736 mmHg 69%
    18:00 +12°C° 0 mm 4 mps 737 mmHg 74%
    19:00 +11°C° 0 mm 4 mps 737 mmHg 80%
    20:00 +10°C° 0 mm 3 mps 737 mmHg 86%
    21:00 +9°C° 0 mm 3 mps 738 mmHg 88%
    22:00 +9°C° 0 mm 2 mps 738 mmHg 91%
    23:00 +8°C° 0 mm 2 mps 738 mmHg 94%

    28 Mayo, Martes

    Tiempo Temperatura Precipitaciones Viento Presión Humedad
    00:00 +8°C° 0 mm 2 mps 738 mmHg 94%
    01:00 +8°C° 0 mm 2 mps 738 mmHg 95%
    02:00 +7°C° 0 mm 2 mps 739 mmHg 95%
    03:00 +8°C° 0 mm 2 mps 739 mmHg 94%
    04:00 +8°C° 0 mm 2 mps 739 mmHg 93%
    05:00 +9°C° 0 mm 2 mps 739 mmHg 91%
    06:00 +11°C° 0 mm 3 mps 739 mmHg 86%
    07:00 +13°C° 0 mm 3 mps 739 mmHg 80%
    08:00 +15°C° 0 mm 4 mps 739 mmHg 74%
    09:00 +17°C° 0 mm 4 mps 739 mmHg 69%
    10:00 +17°C° 0 mm 5 mps 738 mmHg 65%
    11:00 +20°C° 0 mm 5 mps 738 mmHg 61%
    12:00 +19°C° 0.1 mm 5 mps 738 mmHg 67%
    13:00 +17°C° 0.1 mm 5 mps 738 mmHg 74%
    14:00 +17°C° 0.1 mm 4 mps 738 mmHg 80%
    15:00 +15°C° 0.8 mm 5 mps 737 mmHg 84%
    16:00 +15°C° 0.8 mm 5 mps 736 mmHg 87%
    17:00 +14°C° 0.8 mm 5 mps 736 mmHg 91%
    18:00 +15°C° 0.2 mm 5 mps 736 mmHg 91%
    19:00 +16°C° 0.2 mm 6 mps 735 mmHg 91%
    20:00 +16°C° 0.2 mm 6 mps 735 mmHg 91%
    21:00 +16°C° 1.9 mm 6 mps 735 mmHg 92%
    22:00 +17°C° 1.9 mm 5 mps 735 mmHg 93%
    23:00 +17°C° 1.9 mm 5 mps 734 mmHg 95%
    Mostrar más